TimeCET,TemperatureF,Dew PointF,Humidity,Sea Level PressureIn,VisibilityMPH,Wind Direction,Wind SpeedMPH,Gust SpeedMPH,PrecipitationIn,Events,Conditions,WindDirDegrees,DateUTC
12:25 AM,32.0,30.2,93,30.21,3.7,SSW,13.8,-,N/A,,Overcast,210,2012-12-08 23:25:00
12:55 AM,32.0,30.2,93,30.21,3.7,SSW,13.8,-,N/A,,Mostly Cloudy,210,2012-12-08 23:55:00
1:00 AM,32,30,90,30.22,4,SSW,13.4,,,,Mist,210,2012-12-09 00:00:00
1:25 AM,32.0,30.2,93,30.18,3.7,SSW,13.8,-,N/A,Snow,Light Snow Grains,210,2012-12-09 00:25:00
1:55 AM,32.0,30.2,93,30.18,3.7,SSW,13.8,-,N/A,,Light Drizzle,210,2012-12-09 00:55:00
2:04 AM,33.8,32.0,93,30.18,3.1,SSW,13.8,-,N/A,Rain,Light Rain,210,2012-12-09 01:04:00
2:05 AM,33.8,32.0,93,30.18,3.1,SSW,13.8,-,N/A,Rain,Light Rain,210,2012-12-09 01:05:00
2:19 AM,33.8,32.0,93,30.18,-9999.0,SSW,12.7,-,N/A,Rain,Light Rain Showers,210,2012-12-09 01:19:00
2:25 AM,33.8,32.0,93,30.18,-9999.0,SSW,12.7,-,N/A,Rain,Light Rain,210,2012-12-09 01:25:00
2:29 AM,33.8,32.0,93,30.18,-9999.0,SSW,12.7,-,N/A,Rain,Light Rain Showers,210,2012-12-09 01:29:00
2:33 AM,33.8,32.0,93,30.18,3.1,SSW,13.8,-,N/A,Rain,Light Rain Showers,210,2012-12-09 01:33:00
2:39 AM,33.8,32.0,93,30.18,-9999.0,SSW,13.8,-,N/A,Rain,Light Rain,210,2012-12-09 01:39:00
2:46 AM,33.8,32.0,93,30.18,-9999.0,SSW,13.8,-,N/A,Rain,Light Rain,210,2012-12-09 01:46:00
2:55 AM,33.8,32.0,93,30.18,-9999.0,SSW,13.8,-,N/A,,Mostly Cloudy,210,2012-12-09 01:55:00
2:59 AM,33.8,32.0,93,30.18,-9999.0,SSW,13.8,-,N/A,Snow,Light Snow Showers,210,2012-12-09 01:59:00
3:13 AM,33.8,32.0,93,30.15,1.7,SSW,13.8,-,N/A,Snow,Light Snow,210,2012-12-09 02:13:00
3:20 AM,33.8,32.0,93,30.15,1.6,SSW,13.8,-,N/A,Snow,Light Snow,210,2012-12-09 02:20:00
3:25 AM,33.8,32.0,93,30.15,1.4,SSW,13.8,-,N/A,Snow,Light Snow,210,2012-12-09 02:25:00
3:36 AM,33.8,32.0,93,30.15,-9999.0,SSW,15.0,-,N/A,Snow,Light Snow,210,2012-12-09 02:36:00
3:41 AM,33.8,32.0,93,30.15,-9999.0,SSW,13.8,-,N/A,Snow,Light Snow,210,2012-12-09 02:41:00
3:46 AM,33.8,32.0,93,30.15,-9999.0,SSW,13.8,-,N/A,,Mostly Cloudy,200,2012-12-09 02:46:00
3:48 AM,33.8,33.8,100,30.15,2.2,SSW,13.8,-,N/A,,Mostly Cloudy,210,2012-12-09 02:48:00
3:55 AM,33.8,33.8,100,30.15,-9999.0,SSW,13.8,-,N/A,Rain,Light Rain,210,2012-12-09 02:55:00
3:59 AM,33.8,33.8,100,30.12,2.5,SSW,16.1,-,N/A,Rain,Light Rain,210,2012-12-09 02:59:00
4:00 AM,34,33,94,30.15,2,SSW,15.7,,,Snow,Snow,210,2012-12-09 03:00:00
4:03 AM,33.8,33.8,100,30.12,1.6,SSW,16.1,-,N/A,Rain-Snow,Light Rain,210,2012-12-09 03:03:00
4:08 AM,33.8,33.8,100,30.12,-9999.0,SSW,16.1,-,N/A,Snow,Light Snow,210,2012-12-09 03:08:00
4:12 AM,33.8,33.8,100,30.12,2.2,SSW,15.0,-,N/A,Snow,Light Snow,210,2012-12-09 03:12:00
4:16 AM,33.8,33.8,100,30.12,2.5,SSW,16.1,-,N/A,Rain-Snow,Light Rain,210,2012-12-09 03:16:00
4:25 AM,33.8,33.8,100,30.12,-9999.0,SSW,16.1,-,N/A,Rain,Light Rain,210,2012-12-09 03:25:00
4:31 AM,33.8,33.8,100,30.12,3.1,SSW,16.1,-,N/A,Rain,Light Rain,210,2012-12-09 03:31:00
4:40 AM,33.8,33.8,100,30.12,-9999.0,SSW,16.1,-,N/A,,Drizzle,210,2012-12-09 03:40:00
4:55 AM,33.8,33.8,100,30.09,3.1,SSW,16.1,-,N/A,,Overcast,210,2012-12-09 03:55:00
5:16 AM,33.8,33.8,100,30.09,-9999.0,SW,16.1,-,N/A,,Light Drizzle,220,2012-12-09 04:16:00
5:20 AM,33.8,33.8,100,30.09,3.1,SW,16.1,-,N/A,,Mostly Cloudy,220,2012-12-09 04:20:00
5:25 AM,33.8,33.8,100,30.09,3.1,SW,15.0,-,N/A,,Mostly Cloudy,220,2012-12-09 04:25:00
5:31 AM,33.8,33.8,100,30.09,3.1,SW,16.1,-,N/A,,Mostly Cloudy,220,2012-12-09 04:31:00
5:35 AM,33.8,33.8,100,30.09,3.1,SW,16.1,-,N/A,,Overcast,220,2012-12-09 04:35:00
5:36 AM,33.8,33.8,100,30.06,3.1,SSW,16.1,-,N/A,,Overcast,210,2012-12-09 04:36:00
5:55 AM,33.8,33.8,100,30.06,3.1,SW,18.4,-,N/A,,Mostly Cloudy,220,2012-12-09 04:55:00
6:09 AM,33.8,33.8,100,30.06,-9999.0,SW,18.4,-,N/A,,Overcast,220,2012-12-09 05:09:00
6:16 AM,33.8,33.8,100,30.06,-9999.0,SW,18.4,-,N/A,,Overcast,230,2012-12-09 05:16:00
6:25 AM,33.8,33.8,100,30.06,-9999.0,SW,18.4,-,N/A,,Overcast,220,2012-12-09 05:25:00
6:30 AM,33.8,33.8,100,30.06,2.8,SW,18.4,-,N/A,,Overcast,220,2012-12-09 05:30:00
6:38 AM,33.8,33.8,100,30.06,-9999.0,SW,18.4,-,N/A,,Overcast,230,2012-12-09 05:38:00
6:42 AM,33.8,33.8,100,30.06,-9999.0,SW,17.3,-,N/A,,Drizzle,220,2012-12-09 05:42:00
6:43 AM,33.8,33.8,100,30.04,-9999.0,SW,17.3,-,N/A,,Drizzle,220,2012-12-09 05:43:00
6:55 AM,33.8,33.8,100,30.04,-9999.0,SW,17.3,-,N/A,,Drizzle,220,2012-12-09 05:55:00
7:00 AM,35,34,95,30.05,2,SW,17.9,,,Rain,Light Drizzle,230,2012-12-09 06:00:00
7:06 AM,35.6,33.8,93,30.04,-9999.0,SW,18.4,-,N/A,,Drizzle,230,2012-12-09 06:06:00
7:10 AM,33.8,33.8,100,30.04,1.7,SW,18.4,-,N/A,Rain,Rain,230,2012-12-09 06:10:00
7:25 AM,35.6,33.8,93,30.04,1.4,SW,18.4,-,N/A,Rain,Rain,230,2012-12-09 06:25:00
7:55 AM,35.6,35.6,100,30.01,1.4,SW,19.6,-,N/A,,Overcast,230,2012-12-09 06:55:00
8:25 AM,35.6,35.6,100,30.01,1.7,SW,17.3,-,N/A,,Overcast,230,2012-12-09 07:25:00
8:55 AM,35.6,35.6,100,30.01,1.4,SW,17.3,-,N/A,Rain,Light Drizzle,230,2012-12-09 07:55:00
9:25 AM,35.6,35.6,100,29.98,1.8,SW,17.3,-,N/A,Rain,Light Rain,230,2012-12-09 08:25:00
9:55 AM,37.4,35.6,93,29.98,1.6,SW,18.4,-,N/A,Rain,Light Drizzle,230,2012-12-09 08:55:00
10:00 AM,36,36,100,29.99,2,SW,17.9,,,Rain,Heavy Rain,230,2012-12-09 09:00:00
10:25 AM,37.4,37.4,100,29.95,-9999.0,SW,18.4,-,N/A,Rain,Light Rain,220,2012-12-09 09:25:00
10:55 AM,37.4,37.4,100,29.95,1.7,SW,16.1,-,N/A,,Light Drizzle,230,2012-12-09 09:55:00
11:25 AM,37.4,37.4,100,29.92,1.5,SW,17.3,-,N/A,,Light Drizzle,230,2012-12-09 10:25:00
11:55 AM,39.2,39.2,100,29.92,1.8,SW,17.3,-,N/A,Rain,Light Rain,230,2012-12-09 10:55:00
12:25 PM,39.2,39.2,100,29.89,1.8,SW,16.1,-,N/A,Rain,Light Rain,230,2012-12-09 11:25:00
12:55 PM,39.2,39.2,100,29.89,-9999.0,WSW,13.8,-,N/A,Rain,Light Rain,240,2012-12-09 11:55:00
12:59 PM,41.0,41.0,100,29.89,-9999.0,WSW,15.0,-,N/A,Rain,Light Rain,240,2012-12-09 11:59:00
1:00 PM,40,40,100,29.89,2,WSW,15.7,,,Rain,Light Rain,240,2012-12-09 12:00:00
1:16 PM,41.0,41.0,100,29.86,1.6,SW,15.0,-,N/A,Rain,Light Rain,230,2012-12-09 12:16:00
1:25 PM,41.0,41.0,100,29.86,1.9,WSW,13.8,-,N/A,Rain,Light Rain,240,2012-12-09 12:25:00
1:55 PM,42.8,42.8,100,29.86,3.1,WSW,15.0,-,N/A,Rain,Light Rain,250,2012-12-09 12:55:00
1:59 PM,42.8,42.8,100,29.86,-9999.0,WSW,13.8,-,N/A,Rain,Rain,250,2012-12-09 12:59:00
2:25 PM,42.8,42.8,100,29.83,6.2,WSW,18.4,29.9,N/A,Rain,Light Rain,250,2012-12-09 13:25:00
2:26 PM,44.6,42.8,93,29.83,6.2,West,17.3,-,N/A,,Mostly Cloudy,260,2012-12-09 13:26:00
2:42 PM,44.6,42.8,93,29.83,6.2,West,13.8,-,N/A,,Mostly Cloudy,260,2012-12-09 13:42:00
2:55 PM,44.6,42.8,93,29.83,6.2,West,12.7,-,N/A,,Overcast,260,2012-12-09 13:55:00
3:06 PM,44.6,42.8,93,29.83,6.2,West,13.8,-,N/A,,Overcast,260,2012-12-09 14:06:00
3:11 PM,44.6,42.8,93,29.83,6.2,West,15.0,-,N/A,,Overcast,260,2012-12-09 14:11:00
3:25 PM,44.6,42.8,93,29.83,6.2,West,16.1,-,N/A,,Mostly Cloudy,260,2012-12-09 14:25:00
3:33 PM,44.6,42.8,93,29.83,6.2,WSW,16.1,-,N/A,,Light Drizzle,250,2012-12-09 14:33:00
3:55 PM,44.6,42.8,93,29.80,6.2,WSW,16.1,-,N/A,,Mostly Cloudy,250,2012-12-09 14:55:00
4:00 PM,44,42,91,29.82,16,WSW,17.9,,,Rain,Rain,250,2012-12-09 15:00:00
4:05 PM,44.6,42.8,93,29.80,6.2,WSW,17.3,-,N/A,,Mostly Cloudy,250,2012-12-09 15:05:00
4:09 PM,44.6,42.8,93,29.80,6.2,WSW,17.3,29.9,N/A,,Mostly Cloudy,250,2012-12-09 15:09:00
4:25 PM,44.6,42.8,93,29.80,6.2,West,16.1,-,N/A,,Mostly Cloudy,260,2012-12-09 15:25:00
4:37 PM,44.6,42.8,93,29.80,6.2,West,17.3,-,N/A,,Mostly Cloudy,260,2012-12-09 15:37:00
4:55 PM,44.6,41.0,87,29.80,6.2,West,13.8,-,N/A,,Overcast,260,2012-12-09 15:55:00
5:02 PM,44.6,42.8,93,29.80,6.2,West,13.8,-,N/A,Rain,Light Rain,260,2012-12-09 16:02:00
5:05 PM,42.8,41.0,93,29.80,6.2,WSW,12.7,-,N/A,,Mostly Cloudy,250,2012-12-09 16:05:00
5:16 PM,44.6,41.0,87,29.80,6.2,West,12.7,-,N/A,,Mostly Cloudy,260,2012-12-09 16:16:00
5:25 PM,44.6,41.0,87,29.77,6.2,West,12.7,-,N/A,,Mostly Cloudy,260,2012-12-09 16:25:00
5:37 PM,44.6,42.8,93,29.77,5.0,WSW,17.3,-,N/A,,Heavy Drizzle,250,2012-12-09 16:37:00
5:46 PM,44.6,41.0,87,29.77,6.2,WSW,18.4,-,N/A,,Mostly Cloudy,250,2012-12-09 16:46:00
5:51 PM,42.8,41.0,93,29.77,6.2,West,16.1,-,N/A,,Mostly Cloudy,260,2012-12-09 16:51:00
5:55 PM,42.8,41.0,93,29.77,6.2,West,15.0,-,N/A,,Mostly Cloudy,260,2012-12-09 16:55:00
6:08 PM,42.8,39.2,87,29.77,6.2,West,12.7,-,N/A,,Partly Cloudy,260,2012-12-09 17:08:00
6:25 PM,42.8,39.2,87,29.77,6.2,West,10.4,-,N/A,,Unknown,260,2012-12-09 17:25:00
6:29 PM,41.0,39.2,93,29.77,6.2,West,10.4,-,N/A,,Unknown,260,2012-12-09 17:29:00
6:55 PM,41.0,39.2,93,29.77,6.2,West,10.4,-,N/A,,Partly Cloudy,260,2012-12-09 17:55:00
7:00 PM,41,39,88,29.78,14,West,11.2,,,,Partly Cloudy,260,2012-12-09 18:00:00
7:25 PM,41.0,37.4,87,29.77,6.2,West,9.2,-,N/A,,Partly Cloudy,260,2012-12-09 18:25:00
7:55 PM,41.0,39.2,93,29.77,6.2,West,9.2,-,N/A,,Mostly Cloudy,260,2012-12-09 18:55:00
8:25 PM,41.0,37.4,87,29.74,6.2,WSW,11.5,-,N/A,,Mostly Cloudy,250,2012-12-09 19:25:00
8:40 PM,41.0,37.4,87,29.74,6.2,WSW,12.7,-,N/A,,Overcast,250,2012-12-09 19:40:00
8:55 PM,41.0,37.4,87,29.74,6.2,West,15.0,-,N/A,,Mostly Cloudy,260,2012-12-09 19:55:00
9:05 PM,42.8,39.2,87,29.74,6.2,West,13.8,32.2,N/A,Rain,Light Rain,270,2012-12-09 20:05:00
9:09 PM,41.0,39.2,93,29.74,3.1,WNW,23.0,39.1,N/A,Rain,Rain,300,2012-12-09 20:09:00
9:17 PM,39.2,37.4,93,29.77,-9999.0,WNW,19.6,-,N/A,Rain,Light Rain Showers,300,2012-12-09 20:17:00
9:25 PM,39.2,37.4,93,29.77,3.7,WNW,17.3,-,N/A,Rain,Rain Showers,290,2012-12-09 20:25:00
9:30 PM,39.2,37.4,93,29.77,6.2,West,18.4,-,N/A,Rain,Light Rain Showers,280,2012-12-09 20:30:00
9:35 PM,39.2,37.4,93,29.74,6.2,West,17.3,28.8,N/A,,Drizzle,280,2012-12-09 20:35:00
9:48 PM,39.2,37.4,93,29.74,6.2,West,12.7,-,N/A,,Mostly Cloudy,270,2012-12-09 20:48:00
9:55 PM,39.2,37.4,93,29.74,6.2,West,12.7,-,N/A,,Overcast,270,2012-12-09 20:55:00
10:00 PM,40,37,83,29.77,28,West,13.4,,,Rain,Rain,270,2012-12-09 21:00:00
10:20 PM,39.2,37.4,93,29.74,6.2,West,13.8,-,N/A,Rain,Light Rain,270,2012-12-09 21:20:00
10:25 PM,39.2,37.4,93,29.74,6.2,West,11.5,-,N/A,Rain,Light Rain,270,2012-12-09 21:25:00
10:29 PM,39.2,37.4,93,29.74,6.2,West,12.7,-,N/A,Rain,Light Rain,270,2012-12-09 21:29:00
10:35 PM,39.2,37.4,93,29.74,4.3,West,12.7,-,N/A,Rain,Light Rain,270,2012-12-09 21:35:00
10:37 PM,39.2,37.4,93,29.74,-9999.0,West,12.7,-,N/A,Rain,Rain Showers,270,2012-12-09 21:37:00
10:43 PM,39.2,37.4,93,29.74,6.2,West,12.7,-,N/A,Rain,Rain Showers,270,2012-12-09 21:43:00
10:47 PM,39.2,37.4,93,29.74,6.2,West,13.8,-,N/A,,Mostly Cloudy,270,2012-12-09 21:47:00
10:55 PM,39.2,37.4,93,29.74,6.2,West,12.7,-,N/A,,Mostly Cloudy,270,2012-12-09 21:55:00
11:08 PM,39.2,37.4,93,29.74,6.2,West,12.7,-,N/A,,Partly Cloudy,260,2012-12-09 22:08:00
11:25 PM,39.2,37.4,93,29.74,6.2,West,11.5,-,N/A,,Scattered Clouds,260,2012-12-09 22:25:00
11:35 PM,41.0,37.4,87,29.74,6.2,West,12.7,26.5,N/A,Rain,Light Rain,270,2012-12-09 22:35:00
11:42 PM,41.0,37.4,87,29.74,6.2,West,15.0,26.5,N/A,,Scattered Clouds,270,2012-12-09 22:42:00
11:55 PM,41.0,37.4,87,29.74,6.2,West,13.8,26.5,N/A,,Scattered Clouds,280,2012-12-09 22:55:00